Weather History for Palm Springs, CA

Change the Weather History Date:

Wednesday, November 21, 2012

  Actual Average Record
Temperature  
Mean Temperature 66 °F 62 °F  
Max Temperature 81 °F 74 °F 93 °F (1924)
Min Temperature 51 °F 50 °F 26 °F (1951)
Degree Days  
Heating Degree Days 0 4  
Month to date heating degree days 34 42  
Since 1 July heating degree days 34 46  
Cooling Degree Days 1 1  
Month to date cooling degree days 91 69  
Year to date cooling degree days 4680 4131  
Growing Degree Days 16 (Base 50)    
Moisture  
Dew Point 37 °F    
Average Humidity 40    
Maximum Humidity 64    
Minimum Humidity 16    
Precipitation  
Precipitation 0.00 in 0.02 in 1.07 in (2004)
Month to date precipitation T 0.31  
Year to date precipitation 1.82 4.64  
Since 1 July precipitation 1.03 1.70  
Snow  
Snow 0.00 in - - ()
Month to date snowfall 0.0  
Year to date snowfall 0.0  
Since 1 July snowfall 0.0  
Snow Depth 0.00 in    
Sea Level Pressure  
Sea Level Pressure 29.99 in    
Wind  
Wind Speed 3 mph (ENE)    
Max Wind Speed 8 mph    
Max Gust Speed 21 mph    
Visibility 10 miles    
Events      
T = Trace of Precipitation, MM = Missing Value Source: NWS Daily Summary

Daily Weather History Graph

Daily Weather History Graph

Search for Another Location

Airport:

Trip Planner

Search our weather history database for the weather conditions in past years. The results will help you decide how hot, cold, wet, or windy it might be!

Date:

Astronomy

Nov. 21, 2012 Rise Set
Actual Time 6:24 AM PST 4:39 PM PST
Civil Twilight 5:57 AM PST 5:06 PM PST
Nautical Twilight 5:27 AM PST 5:36 PM PST
Astronomical Twilight 4:57 AM PST 6:06 PM PST
Moon 12:42 PM PST (11/21) 12:05 AM PST (11/21)
Length of Visible Light 11h 08m
Length of Day
10h 15m
Waxing Gibbous, 63% of the Moon is Illuminated
Nov 21
Waxing Gibbous
Nov 28
Full
Dec 6
Last Quarter
Dec 13
New
Dec 19
First Quarter

Hourly Weather History & Observations

Time (PST) Temp. Dew Point Humidity Pressure Visibility Wind Dir Wind Speed Gust Speed Precip Events Conditions
12:53 AM 60.1 °F 41.0 °F 49% 29.99 in 10.0 mi NNW 4.6 mph - N/A   Clear
1:53 AM 55.0 °F 42.1 °F 62% 29.99 in 10.0 mi Calm Calm - N/A   Clear
2:53 AM 55.0 °F 37.9 °F 53% 29.99 in 10.0 mi NNW 6.9 mph - N/A   Clear
3:53 AM 53.1 °F 41.0 °F 64% 29.99 in 10.0 mi Calm Calm - N/A   Clear
4:53 AM 55.0 °F 30.9 °F 40% 29.99 in 10.0 mi NNW 5.8 mph - N/A   Clear
5:53 AM 55.9 °F 32.0 °F 40% 30.00 in 10.0 mi Calm Calm - N/A   Clear
6:53 AM 52.0 °F 39.9 °F 63% 30.02 in 10.0 mi Calm Calm - N/A   Clear
7:53 AM 63.0 °F 36.0 °F 37% 30.04 in 10.0 mi Calm Calm - N/A   Clear
8:53 AM 68.0 °F 33.1 °F 27% 30.04 in 10.0 mi Calm Calm - N/A   Clear
9:53 AM 72.0 °F 34.0 °F 25% 30.04 in 10.0 mi South 3.5 mph - N/A   Clear
10:53 AM 77.0 °F 30.9 °F 19% 30.01 in 10.0 mi South 3.5 mph - N/A   Clear
11:53 AM 78.1 °F 32.0 °F 19% 29.97 in 10.0 mi Variable 4.6 mph - N/A   Clear
12:53 PM 80.1 °F 30.0 °F 16% 29.95 in 10.0 mi ESE 5.8 mph - N/A   Clear
1:53 PM 81.0 °F 30.9 °F 16% 29.94 in 10.0 mi SE 6.9 mph - N/A   Clear
2:53 PM 81.0 °F 30.9 °F 16% 29.94 in 10.0 mi ESE 5.8 mph - N/A   Clear
3:53 PM 79.0 °F 35.1 °F 20% 29.94 in 10.0 mi East 4.6 mph - N/A   Clear
4:53 PM 73.9 °F 37.0 °F 26% 29.94 in 10.0 mi Calm Calm - N/A   Clear
5:53 PM 72.0 °F 39.9 °F 31% 29.96 in 10.0 mi NE 3.5 mph - N/A   Clear
6:53 PM 64.9 °F 42.1 °F 43% 29.98 in 10.0 mi Calm Calm - N/A   Clear
7:53 PM 64.0 °F 41.0 °F 43% 29.98 in 10.0 mi Calm Calm - N/A   Clear
8:53 PM 64.0 °F 42.1 °F 45% 29.98 in 10.0 mi Calm Calm - N/A   Clear
9:53 PM 62.1 °F 39.9 °F 44% 29.99 in 10.0 mi Calm Calm - N/A   Clear
10:53 PM 61.0 °F 39.9 °F 46% 29.99 in 10.0 mi Calm Calm - N/A   Clear
11:53 PM 62.1 °F 44.1 °F 52% 29.99 in 10.0 mi North 8.1 mph - N/A   Clear